DELTA 1 R/B, 3036

Orbit data source: Space-Track

DELTA 1 R/B, 3036 is space debris in SSO originally from a launch on Fri, 10 Nov 1967 UTC launched from the Air Force Western Test Range (AFWTR). Debris objects in space refer to the collection of defunct objects orbiting the Earth. Examples of debris include non-operational satellites, rocket bodies, and fragments generated from explosions, collisions, or faulty payload assembly.

Loading next visibility...
Identifier
3036, 1967-114B
Orbit
SSO
Last TLE update
10 hours ago
Origin
Manufacturer
UTC
Mission
Spacecraft
Bus & Motor
FW4, Unknown motor
Mass
~40 kg wet, ~40 kg dry
Launch date (UTC)
1967-11-10 (58 years ago)
Launch vehicle
Unknown
Launch site
Air Force Western Test Range (AFWTR)
Object type
Payload
Rocket body
Debris
Shape & HBR
Cyl, 0.8 m
Radar Cross Section
0.687 m², Medium (>0.1 m² and < 1m²)

Expand to show TLE details & history

TLE from 10 hours ago
0 DELTA 1 R/B
1 03036U 67114B   25199.53229057 -.00000049  00000-0 -13751-4 0  9996
2 03036 102.0153 291.3914 0048252  55.9443 316.0863 12.54132602640526
Epoch: 2025-07-18T12:46Z
TLE epoch observation values (Epoch: 2025-07-18T12:46:29.905Z)
Latitude
11.34618°
Longitude
160.7488°
Altitude
1,421.958 km
Speed
7.163 km/s
True Right ascension
19h 15m 49s
True Declination
11° 17' 08"
Sunlit
Object was in full shadow at epoch
Visualization orbit readout
Latitude
37.309°
Longitude
-7.09494°
Altitude
1,449.716 km
Speed
7.142 km/s
Apparent Right ascension
04h 47m 31s
Apparent Declination
6° 54' 54"
Sunlit
Object is in daylight
Visualization observer readout
Local Sidereal Time
11:49:36
Azimuth
285.363° WNW
Elevation
-7.267°
Doppler factor
1
Orbital elements
Apogee altitude
1,482.561 km
Perigee altitude
1,407.067 km
Semi-major axis
7,822.951 km
Eccentricity
0.00483
Inclination
102.0153°
RAAN
291.3914°
Arg. of periapsis
55.9443°
True anomaly
315.70113°
Mean anomaly
316.0863°
Eccentric anomaly
315.89388°
Mean motion
3.1368 °/min
Orbital period
114.77 mins
BSTAR
-0.000013751
Loading maneuver chart data...
Loading SW <> Apogee altitude chart data...
Loading historical data...
Loading historical data...
Loading historical data...
Loading historical data...
Loading historical data...
Loading historical data...
Loading historical data...
Other satellites on launch #114 in the year 1967 (1967-11-10 UTC)
|